Regional Weather Roundup
Issued by NWS

Home | Current Version | Previous Version | Text Only | Print | Product List | Glossary On
Versions: 1 2 3 4 5 6 7 8 9 10 11 12 13 14 15 16 17 18 19 20 21 22 23 24 25 26 27 28 29 30 31 32 33 34 35 36 37 38 39 40 41 42 43 44 45 46 47 48 49 50
000
ASUS43 KBIS 060010
RWRND

NORTH DAKOTA REGIONAL WEATHER ROUNDUP
NATIONAL WEATHER SERVICE BISMARCK ND
700 PM CDT THU MAY 05 2016

NOTE: "FAIR" INDICATES FEW OR NO CLOUDS BELOW 12,000 FEET WITH NO
SIGNIFICANT WEATHER AND/OR OBSTRUCTIONS TO VISIBILITY.


NDZ001>003-009>011-017-060100-
NORTHWEST NORTH DAKOTA

CITY           SKY/WX    TMP DP  RH WIND       PRES   REMARKS
WILLISTON      CLOUDY    86  35  16 SW10      29.74F
6HR MIN TEMP:  85; 6HR MAX TEMP:  90;

MINOT          CLOUDY    92  36  14 SW10G17   29.73S
MINOT AFB      CLOUDY    89  40  17 W8        29.71F
$$

NDZ018>021-031>035-040>046-060100-
SOUTHWEST NORTH DAKOTA

CITY           SKY/WX    TMP DP  RH WIND       PRES   REMARKS
BISMARCK       CLOUDY    87  43  21 SW6       29.78S
6HR MIN TEMP:  83; 6HR MAX TEMP:  88;

DICKINSON      PTSUNNY   83  35  18 W9        29.79F
GARRISON         N/A     86  40  19 S7        29.76F
6HR MIN TEMP:  84; 6HR MAX TEMP:  90;

HETTINGER ARPT MOSUNNY   79  45  29 S7        29.84S
$$

NDZ004>008-012>016-024-026-027-054-060100-
NORTHEAST NORTH DAKOTA

CITY           SKY/WX    TMP DP  RH WIND       PRES   REMARKS
GRAND FORKS    MOSUNNY   90  35  14 SW16      29.71F
GRND FRKS AFB  SUNNY     88  34  14 W10       29.72F
DEVILS LAKE    SUNNY     82  42  24 SW10      29.75F
$$

NDZ022-023-025-028>030-036>039-047>053-060100-
SOUTHEAST NORTH DAKOTA

CITY           SKY/WX    TMP DP  RH WIND       PRES   REMARKS
FARGO          SUNNY     88  37  16 SW12      29.75F
6HR MIN TEMP:  87; 6HR MAX TEMP:  91;

JAMESTOWN      SUNNY     86  40  19 SW14      29.76F
$$




USA.gov is the U.S. government's official web portal to all federal, state and local government web resources and services.